Theta_e
283 285 286 285 286 286 284 287 282 285 282 287 287 288 290 292 293 294 294 293 293 293 292 292 291 290 290 290 288 288 287 287 286 285 285 284 283 283 283 283 283 283 283 282
281 285 285 283 285 287 287 286 285 286 284 288 289 290 291 292 294 294 295 295 294 294 293 291 291 290 290 289 288 288 286 285 285 284 283 282 282 283 283 283 282 282 282 282
281 283 284 280 284 285 286 288 287 284 289 288 288 290 292 292 294 295 296 296 295 294 294 292 291 291 289 289 287 285 284 283 283 282 282 283 283 283 282 282 282 281 281 281
278 280 276 286 288 288 287 288 290 289 287 289 290 292 293 296 295 296 297 297 296 296 295 293 292 290 289 286 285 284 283 283 282 283 282 282 281 281 281 281 281 281 281 280
274 265 279 283 284 285 284 286 289 289 291 288 289 289 290 295 296 297 298 299 298 298 296 292 290 288 287 285 284 283 283 283 282 282 281 280 279 279 280 279 278 277 279 276
265 270 271 282 285 287 289 283 292 291 291 288 288 286 292 292 295 297 298 298 297 296 294 290 289 287 286 284 283 283 283 283 282 281 280 279 279 279 278 277 278 278 278 276
268 268 275 282 284 287 280 283 284 289 290 288 288 293 291 292 292 296 295 294 294 294 291 289 287 287 285 284 283 284 282 281 280 279 278 278 278 278 276 274 275 270 273 272
274 272 276 284 284 285 287 282 284 286 288 288 288 289 289 291 290 291 292 291 292 290 288 286 287 287 285 284 283 282 281 279 278 277 279 277 276 274 273 272 269 268 267 268
284 282 284 283 284 284 286 284 283 284 285 289 288 288 287 288 286 287 288 288 289 288 285 285 286 287 284 284 281 280 279 277 276 276 276 275 273 273 272 268 268 267 268 266
286 284 284 283 283 285 285 285 285 285 285 286 287 287 286 286 285 285 282 284 285 285 284 283 285 285 286 281 280 279 277 276 275 274 273 273 274 273 269 267 264 266 264 264
283 284 284 286 286 286 285 284 284 285 285 287 286 286 286 284 282 281 281 281 284 285 284 283 283 281 281 279 278 277 276 274 274 274 273 271 271 270 270 267 268 263 263 264
283 287 288 287 286 286 285 285 285 284 285 285 284 285 283 281 281 281 280 280 281 281 282 279 279 276 276 277 278 276 274 273 273 271 270 270 269 269 273 275 277 277 278 274
285 287 288 288 287 286 286 285 285 284 284 284 283 284 281 280 278 278 278 279 280 280 280 278 277 276 275 275 276 275 275 272 270 270 269 267 267 266 263 265 273 274 275 276
284 284 282 283 284 285 285 283 280 278 278 279 279 276 276 276 274 278 279 280 279 279 278 278 277 275 272 272 273 272 270 270 269 267 267 264 264 263 263 262 259 259 268 272
283 283 282 282 281 280 278 278 277 277 276 275 273 274 275 275 275 276 273 273 275 278 279 278 275 270 268 268 268 266 266 264 264 263 263 263 262 262 260 258 257 257 257 266
279 275 274 277 276 275 275 274 275 277 274 273 273 275 274 272 271 269 268 272 275 275 274 274 273 265 263 264 263 263 263 264 263 261 259 259 259 259 259 259 258 257 258 259
277 276 273 273 274 274 274 274 275 275 273 272 276 270 269 268 266 268 268 263 263 269 270 271 268 263 262 263 263 262 261 261 260 258 257 257 258 258 258 256 257 256 258 261
276 277 275 275 275 274 274 270 269 270 271 271 268 266 266 269 275 273 270 263 260 259 263 263 262 261 259 259 260 260 260 260 258 258 257 258 256 257 257 256 255 255 256 257
269 270 270 272 270 269 269 270 268 269 269 267 265 270 271 270 270 268 264 264 263 263 265 260 266 260 259 258 259 260 260 258 258 254 256 255 253 252 253 252 252 252 253 254
262 263 264 264 265 263 263 262 263 265 268 267 266 266 268 269 264 263 264 267 269 268 263 262 265 261 261 261 263 260 259 259 259 256 255 254 254 252 251 252 252 251 250 250
256 257 258 259 259 259 259 258 259 260 261 263 265 270 272 269 266 264 261 266 268 261 263 263 263 262 261 262 260 259 257 258 258 257 255 255 253 251 252 251 251 252 250 250
252 253 254 254 254 255 254 254 253 255 257 259 261 262 263 262 259 259 261 263 257 261 261 261 261 261 261 262 260 258 256 256 255 253 252 252 254 255 256 256 256 255 255 252
249 250 251 252 251 251 251 248 250 250 252 253 254 256 257 259 258 258 264 257 255 258 257 259 260 260 260 260 258 257 257 257 256 257 257 258 259 259 259 257 256 256 255 253
247 248 249 249 247 248 251 251 248 247 247 248 250 250 252 256 256 253 255 256 257 260 257 258 262 264 261 259 259 259 259 259 259 259 259 259 259 258 257 255 256 255 254 253
245 245 244 246 247 249 246 246 248 247 248 248 249 251 252 254 256 253 252 254 260 258 258 262 266 265 260 260 260 260 260 260 259 259 259 258 258 257 256 254 254 253 252 251
245 247 247 245 248 248 249 248 248 248 246 248 247 249 250 252 256 257 258 260 260 260 261 263 264 261 261 260 260 260 259 259 259 259 258 257 256 255 255 254 253 253 252 250
246 248 246 249 246 248 248 248 248 249 247 246 248 249 250 251 253 256 258 259 259 259 260 260 260 260 259 259 259 258 258 258 258 258 258 257 256 255 254 254 253 252 251 251
Wind_Speed
1 5 5 3 10 15 13 22 12 24 11 12 8 8 8 6 8 12 14 15 15 14 12 12 11 9 9 8 8 8 10 9 9 7 7 6 6 6 6 6 5 5 5 5
3 5 5 2 8 15 21 15 15 14 13 8 6 6 8 13 15 17 17 19 17 16 16 15 15 13 12 11 10 9 9 9 7 7 6 6 6 6 6 6 5 5 5 5
13 3 6 3 15 13 14 18 20 18 24 7 7 10 11 13 17 20 20 20 21 22 20 17 17 16 16 14 10 10 10 9 8 7 7 6 6 6 6 5 5 5 5 4
4 2 5 15 5 12 16 9 21 17 5 9 10 12 11 12 19 20 18 19 19 17 17 17 16 15 12 11 11 10 9 9 7 7 7 6 6 5 5 4 5 3 3 1
6 5 6 10 10 10 11 20 12 21 17 6 5 4 7 14 15 19 21 21 22 20 17 16 17 15 15 13 12 11 11 10 8 7 7 6 5 5 4 4 2 2 1 3
3 8 13 9 8 8 8 21 13 15 17 11 8 8 18 10 15 20 18 13 15 17 15 17 17 18 17 15 14 14 13 10 8 7 7 6 5 5 3 2 2 1 2 3
4 4 12 7 5 5 11 14 2 9 10 8 11 15 2 2 8 13 10 12 12 17 19 18 17 18 17 15 15 11 9 8 7 6 6 5 5 3 3 3 2 1 1 3
4 2 19 6 4 16 6 2 2 2 1 4 8 5 2 4 5 8 12 12 17 16 15 15 19 20 19 17 11 12 11 10 8 6 5 5 6 4 3 4 3 0 0 2
13 10 3 2 2 2 1 4 1 2 3 4 4 3 2 2 2 3 6 9 11 15 14 13 17 19 20 14 14 13 11 9 7 6 5 5 5 4 3 3 3 1 1 1
4 3 4 5 1 3 2 1 0 2 3 3 3 3 3 2 4 5 4 7 7 13 15 14 13 12 12 15 13 13 11 9 7 7 6 4 3 3 3 2 2 1 2 2
4 2 3 3 5 3 4 2 3 3 2 4 3 3 3 3 2 2 3 3 8 11 12 14 12 11 13 13 14 11 9 7 6 5 6 5 3 3 3 3 4 3 4 3
3 2 3 1 3 4 4 4 5 3 4 3 2 4 2 2 3 5 6 4 6 6 10 10 11 11 11 11 11 12 9 7 6 6 4 4 3 2 4 0 1 4 4 1
6 5 4 6 2 4 4 2 1 3 4 5 3 2 3 4 3 4 5 7 9 10 11 12 12 12 10 10 10 10 9 8 5 5 4 5 3 3 3 4 4 3 4 7
3 4 1 1 2 3 3 3 3 1 1 2 2 1 3 4 2 7 10 8 7 9 11 11 12 11 8 8 8 8 7 9 6 5 5 4 4 4 3 3 2 3 5 6
3 3 3 1 2 3 3 2 3 5 4 5 1 4 4 5 6 6 3 4 6 10 11 11 11 10 9 8 9 9 7 5 5 4 4 4 4 3 3 3 3 2 3 5
3 4 3 1 3 3 2 2 1 6 3 3 4 6 3 0 2 4 4 7 12 13 11 11 11 9 9 9 9 7 6 9 8 5 4 4 4 4 3 3 3 2 2 3
3 4 2 5 5 4 6 4 4 4 4 5 8 2 5 5 5 6 7 4 3 5 8 10 9 10 9 9 10 6 6 6 7 4 4 4 4 4 3 3 3 3 3 3
1 3 3 2 1 3 5 3 4 5 5 6 4 4 4 7 11 9 8 6 3 3 3 5 9 10 8 7 7 7 6 6 5 6 5 5 4 4 3 3 3 3 3 2
7 6 6 6 6 4 3 5 5 6 7 5 3 8 7 7 4 4 6 6 5 5 7 6 11 10 9 7 7 6 7 8 7 4 4 4 3 3 3 3 3 3 2 2
9 7 7 5 6 6 7 4 7 7 7 5 4 3 6 7 5 5 7 12 12 5 11 11 12 11 11 11 12 6 7 8 8 5 5 4 4 4 3 4 4 3 2 3
6 6 5 6 6 6 6 6 7 7 10 7 6 7 8 4 5 6 5 7 9 8 10 16 13 10 9 11 10 8 7 6 7 7 6 5 4 3 3 3 3 3 3 3
7 8 8 7 6 6 4 6 5 6 6 7 7 6 7 4 2 3 4 5 3 10 7 8 7 11 9 13 8 8 7 6 5 5 4 4 4 4 4 4 4 3 3 3
5 5 5 6 7 7 7 4 5 4 6 6 7 7 5 4 2 3 7 2 4 5 3 4 8 13 13 8 7 7 8 8 7 6 6 6 5 5 4 4 3 3 3 3
6 6 5 6 5 4 7 7 6 5 3 4 3 3 2 3 4 2 2 4 5 8 4 7 11 14 13 6 6 6 6 6 6 5 4 6 5 4 3 3 3 3 4 4
4 5 4 5 5 4 5 5 6 5 5 5 6 5 4 2 3 2 1 1 7 5 4 11 13 14 6 6 5 5 4 5 4 4 5 4 4 4 3 3 4 4 4 4
4 4 4 5 4 3 4 3 3 3 3 4 3 4 4 4 2 1 2 2 3 4 5 6 6 7 6 6 6 5 4 4 4 4 4 4 3 3 4 4 4 5 4 5
4 3 4 4 2 4 3 2 2 4 3 2 3 4 3 4 3 3 4 4 2 3 3 4 4 5 4 3 3 3 3 3 4 3 4 4 4 4 4 5 5 5 4 5
Wind_Direction
200 152 141 215 196 183 193 219 188 238 213 225 222 206 202 167 152 165 178 183 184 179 173 173 169 163 157 151 148 145 133 130 136 128 126 131 127 117 115 107 101 95 89 73
213 169 150 193 215 195 210 221 242 253 266 201 191 127 166 186 178 188 193 191 186 183 180 180 174 171 166 162 160 147 139 141 136 132 141 140 132 131 125 110 97 81 69 59
225 129 101 338 217 203 225 219 218 226 238 171 187 195 194 186 193 197 197 192 190 190 186 182 180 174 171 167 152 146 145 145 146 149 146 146 144 136 125 112 99 68 52 41
158 89 212 249 180 202 216 221 228 248 228 202 197 210 206 197 198 206 199 199 198 190 187 183 173 170 154 151 150 148 150 152 154 153 145 149 144 137 122 100 87 90 64 356
139 188 305 268 213 188 177 252 221 237 236 200 193 114 259 208 207 203 199 201 199 192 181 167 166 157 150 153 154 154 162 164 167 158 152 153 140 126 108 103 109 122 207 259
87 157 208 279 184 158 101 262 225 222 235 195 147 217 242 204 205 212 209 201 186 176 165 164 167 157 157 162 163 171 171 167 156 150 151 147 140 134 118 136 119 91 306 276
155 215 275 229 182 145 142 250 255 201 224 162 197 225 296 268 220 215 194 173 156 164 173 170 154 155 162 164 177 165 144 138 141 147 146 140 135 131 128 110 102 58 312 312
117 175 256 155 54 172 218 33 37 61 94 212 246 282 342 294 254 180 165 155 161 159 165 159 162 162 165 174 157 143 143 145 149 147 148 140 142 123 118 126 121 187 36 310
184 210 213 197 42 72 104 126 113 337 334 303 259 246 184 244 164 162 156 150 158 158 149 161 168 170 164 160 148 144 145 147 144 137 140 146 133 141 143 142 149 145 202 219
112 209 157 189 199 191 176 108 188 235 255 225 259 280 272 172 166 145 127 148 145 146 156 159 166 164 152 144 142 144 144 145 145 149 151 150 140 140 128 139 75 3 285 326
298 288 316 168 205 194 186 188 271 298 292 301 282 240 217 207 170 118 121 103 152 161 162 162 152 133 137 139 141 139 136 143 151 158 167 130 129 156 165 201 160 208 229 185
223 167 93 286 280 169 182 241 247 254 299 301 281 261 162 183 171 156 156 143 144 149 150 148 134 125 127 135 142 142 145 154 173 166 131 142 148 133 26 74 231 301 327 331
183 179 176 177 195 352 348 322 193 203 250 304 307 210 176 194 182 151 150 165 169 160 147 141 135 137 143 144 145 154 157 160 148 137 153 153 154 129 122 343 340 310 337 339
91 106 86 187 145 34 58 33 16 346 340 225 216 192 169 178 157 181 186 174 145 143 149 149 146 151 149 141 143 146 146 146 154 158 156 149 149 148 128 169 212 290 320 331
202 90 96 131 29 9 18 22 7 310 309 314 279 223 194 198 206 202 134 129 131 148 154 155 158 161 152 150 153 152 141 143 146 145 151 149 137 147 179 174 168 226 321 333
84 64 38 180 284 300 356 338 286 282 267 292 264 251 236 167 109 107 126 148 158 187 178 170 172 154 149 151 148 140 140 156 162 155 144 149 169 177 170 166 170 207 224 235
87 306 316 284 246 246 222 244 220 268 305 251 258 219 144 135 124 168 188 185 156 166 170 172 163 150 159 165 158 150 152 148 145 129 159 179 179 181 171 159 190 210 235 237
266 62 84 160 312 317 317 307 273 267 252 251 226 165 172 190 214 202 189 153 86 67 163 146 144 148 152 156 152 148 152 155 156 171 172 182 191 179 172 176 192 202 243 281
27 43 24 35 14 339 327 349 348 316 307 271 175 222 221 219 209 173 124 166 173 191 207 151 158 149 155 167 157 153 159 163 171 170 174 171 165 174 170 176 194 209 218 254
21 18 22 16 19 22 347 346 332 326 323 318 277 287 255 237 179 157 164 204 210 199 140 157 164 169 171 175 166 171 178 175 171 172 167 176 176 181 186 184 188 195 209 233
12 356 3 6 348 346 5 346 339 336 323 325 299 272 267 293 178 152 161 218 209 170 165 169 175 176 173 171 164 171 171 176 178 174 176 176 172 185 189 187 195 196 214 225
344 347 343 347 345 324 328 328 332 326 330 336 334 325 310 285 275 265 278 243 29 156 156 172 174 166 166 172 164 168 170 173 172 159 165 172 181 188 198 202 208 207 224 225
321 312 316 343 339 316 312 348 336 336 341 341 334 327 308 298 232 208 264 191 146 173 151 163 168 165 161 163 163 166 173 179 178 179 182 184 190 197 205 200 205 219 238 237
321 334 319 311 318 348 351 327 331 322 307 308 317 316 325 331 307 278 275 186 177 179 157 153 169 164 158 158 167 175 177 181 184 181 178 185 196 202 205 200 226 216 237 246
289 295 300 337 345 321 301 304 320 332 342 338 336 326 325 277 205 281 226 208 172 149 145 164 162 156 151 156 161 167 176 176 178 179 194 200 202 210 215 208 232 236 233 239
312 300 291 264 260 287 296 311 303 300 332 324 309 323 320 320 340 72 86 112 127 135 145 158 161 142 151 157 165 174 184 187 188 197 204 214 208 209 222 230 234 235 233 239
319 327 330 324 313 319 309 304 323 310 299 247 265 296 319 335 355 13 77 85 72 88 92 92 99 118 127 145 160 171 180 177 199 210 221 225 222 223 225 233 238 240 235 237